Weather in Amposta

Spain     40°42′22″N   0°34′36″E
temp.,
°C
wind,
m/s
gust,
m/s
humid.,
%
clouds,
%
prec.,
mm/h
press.,
hPa
HPBL,
m
26 july, mon
mon2623:00+21ssw33787 0.1 101254
02:00+20wnw217882 1.6 101226
05:00+20nw227199 0.4 101231
08:00+21wnw236499 0.5 1013156
11:00+25nne214498 0.1 1014989
14:00+27se434286 0.1 10141382
17:00+29se54431 0.0 10131457
20:00+25s56601 0.3 1014768
27 july, tue
tue2723:00+21s23812 0.0 101684
02:00+20ssw22855 0.0 101625
05:00+19w11880 0.0 101512
08:00+21n11760 0.0 101558
11:00+27sse34500 0.0 10151023
14:00+30sse55408 0.0 10141344
17:00+29sse55400 0.0 10131091
20:00+26s45520 0.0 1013678
28 july, wed
wed2823:00+21s237629 0.0 101359
02:00+20sse22825 0.0 101330
05:00+20nw11878 0.0 101311
08:00+22n12771 0.0 101487
11:00+27ese22510 0.0 1014912
14:00+30ese54430 0.0 10141174
17:00+29se55430 0.0 10131034
20:00+26se44580 0.0 1013748
29 july, thu
thu2923:00+22sse23872 0.0 101471
02:00+21sse11939 0.0 101428
05:00+20sse119542 0.0 101343
08:00+22ese018630 0.0 1013248
11:00+28se34550 0.0 1013847
14:00+31se55430 0.0 10121070
17:00+31sse56440 0.0 1010894
20:00+27sse45600 0.0 1010633
30 july, fri
fri3023:00+22sse22890 0.0 101150
02:00+21n22900 0.0 101118
05:00+21n33770 0.0 101157
08:00+21nnw34660 0.0 1012134
11:00+28ne22410 0.0 1013773
14:00+33ese53310 0.0 10111416
17:00+31ese53430 0.0 1011990
20:00+27se43570 0.0 1011632